Weather in Vityazevo

Russia / Krasnodar Krai     45°00′08″N   37°17′01″E
temp.,
°C
wind,
m/s
gust,
m/s
humid.,
%
clouds,
%
prec.,
mm/h
press.,
hPa
HPBL,
m
21 june, mon
mon2100:00+21ssw11930 0.0 101017
03:00+21n11910 0.0 101016
06:00+21ene33810 0.0 101072
09:00+25ne34722 0.0 1010243
12:00+28nnw24650 0.0 1009571
15:00+28nne25667 0.0 1008737
18:00+23ssw66840 0.0 1009170
21:00+22ssw44860 0.0 100968
22 june, tue
tue2200:00+21ssw34870 0.0 100970
03:00+21sse23865 0.0 100935
06:00+21s348512 0.0 1010123
09:00+23s44795 0.0 1010312
12:00+23ssw55813 0.0 1011354
15:00+23sw568538 0.0 1011326
18:00+22ssw34853 0.0 1011263
21:00+21s3390100 0.0 101266
23 june, wed
wed2300:00+21s57948 0.6 1012220
03:00+20sse469513 0.6 1012222
06:00+21sse4692100 0.0 1013235
09:00+22s56816 0.1 1014453
12:00+23ssw55787 0.0 1013447
15:00+23sw44795 0.0 1013297
18:00+23wsw33805 0.2 1013252
21:00+21wsw3388100 0.2 101371
24 june, thu
thu2400:00+21sw3388100 0.0 101356
03:00+21ssw458645 0.0 1013133
06:00+21s578859 0.0 1013259
09:00+21s4688100 2.1 1014267
12:00+23ssw66825 0.9 1014429
15:00+22sw448216 0.9 1014297
18:00+22sw228345 4.8 1014131
21:00+21wsw22856 5.5 101435
25 june, fri
fri2500:00+21sw2387100 1.5 101462
03:00+21nnw22876 1.8 101350
06:00+21s22862 0.0 101360
09:00+23ssw44815 0.0 1014291
12:00+23ssw448013 0.0 1015411
15:00+23ssw55808 0.0 1014420
18:00+23ssw44805 0.0 1014258
21:00+22ssw45887 0.1 1014124